伽利略0101星导航星座 (GSAT0101 (GALILEO-PFM))

导读

GALILEO-PFM是欧洲空间局(ESA)主导伽利略全球卫星导航系统的首颗实验卫星,于2011年10月21日发射升空。它承担着系统在轨验证、技术测试的核心任务,为后续伽利略星座部署与系统正式运行奠定技术基础,推动欧洲自主全球导航服务体系的构建进程,打破了美俄导航领域的垄断格局。

基本信息
目录编号:
37846
目录名称:
GALILEO-PFM
国际标识:
2011-060A
轨道中心:
EARTH
卫星名称:
伽利略0101星
卫星全名:
伽利略0101星导航星座 (GSAT0101 (GALILEO-PFM))
卫星状态:
在轨 (已飞行5393 天)
发射日期:
2011-10-21 UTC
国别 :
(ESA)
星等 :
--
轨道信息
数据来源 国际轨道数据
星历时间: 2026-07-25T07:26:02+0800
2天前
查看轨道信息
半长轴: 29600.112km
偏心率: 0.0001907
轨道倾角: 56.981°
近地点辐角 65.331°
升交点赤经 340.738°
平近点角 294.682°
近地点: 23216.33km
远地点: 23227.62km
周期: 844.695分钟
每日圈数: 1.704758
详细信息
平衡模式:
三轴稳定
覆盖范围:
全球
运营商:
欧盟空间计划局
运营商所在国:
法国大都会
使用方式:
暂无
卫星简介
伽利略定位系统(Galileo)是一个全球导航卫星系统,于2016年投入使用由欧盟通过ESA创建,由欧盟空间计划局(EUSPA)运营。该系统有两个地面操控站,并且在高纬度地区提供比其他系统更好的定位服务。该卫星仍在工作。
2D轨道图
3D轨道图
轨道高度分析图
轨道倾角分析图
轨道综合分析图
查看轨道综合分析图